Weather History for Dewar Lakes, NU

Change the Weather History Date:

Saturday, November 24, 2012

  Actual Average Record
Temperature  
Mean Temperature -2 °F -  
Max Temperature 2 °F 1 °F 24 °F (2005)
Min Temperature -6 °F -4 °F -27 °F (2001)
Degree Days  
Heating Degree Days 67    
Moisture  
Dew Point -    
Average Humidity    
Maximum Humidity    
Minimum Humidity    
Precipitation  
Precipitation 0.00 in - - ()
Sea Level Pressure  
Sea Level Pressure 29.69 in    
Wind  
Wind Speed 11 mph ()    
Max Wind Speed 20 mph    
Max Gust Speed -    
Visibility 2.6 miles    
Events      
Averages and records for this station are not official NWS values.
T = Trace of Precipitation, MM = Missing Value Source: Averaged Metar Reports

Daily Weather History Graph

Daily Weather History Graph

Search for Another Location

Airport:

Trip Planner

Search our weather history database for the weather conditions in past years. The results will help you decide how hot, cold, wet, or windy it might be!

Date:

Astronomy

Nov. 24, 2012 Rise Set
Actual Time 10:01 AM EST 1:00 PM EST
Civil Twilight 8:16 AM EST 2:45 PM EST
Nautical Twilight 6:54 AM EST 4:07 PM EST
Astronomical Twilight 5:44 AM EST 5:17 PM EST
Moon 12:43 PM EST (11/24) 4:06 AM EST (11/24)
Length of Visible Light 6h 29m
Length of Day
2h 58m
Waxing Gibbous, 87% of the Moon is Illuminated
Nov 24
Waxing Gibbous
Nov 28
Full
Dec 6
Last Quarter
Dec 13
New
Dec 20
First Quarter

Hourly Weather History & Observations

Time (EST) Temp. Windchill Dew Point Humidity Pressure Visibility Wind Dir Wind Speed Gust Speed Precip Events Conditions
12:00 AM 1.4 °F -16.1 °F - N/A% 29.76 in 9.0 mi East 12.7 mph - N/A   Overcast
12:56 AM 1.4 °F -15.3 °F - N/A% 29.57 in 9.0 mi East 11.5 mph - N/A   Overcast
1:00 AM 1 °F - - % 29.76 in 9 mi East 12.7 mph - -   Overcast
1:00 AM 1.4 °F -15.3 °F - N/A% 29.76 in 9.0 mi East 11.5 mph - N/A   Overcast
1:15 AM 1.4 °F -15.3 °F - N/A% 29.57 in 8.0 mi East 11.5 mph - N/A   Overcast
1:44 AM 1.4 °F -15.3 °F - N/A% 29.57 in 9.0 mi East 11.5 mph - N/A   Overcast
2:00 AM 1.4 °F -15.3 °F - N/A% 29.77 in 7.0 mi East 11.5 mph - N/A   Overcast
3:00 AM 1.4 °F -16.1 °F - N/A% 29.76 in 5.0 mi ENE 12.7 mph - N/A   Overcast
4:00 AM 2 °F - - % 29.76 in 6 mi East 13.8 mph - -   Overcast
4:00 AM 1.4 °F -16.9 °F - N/A% 29.76 in 6.0 mi East 13.8 mph - N/A   Overcast
4:25 AM 1.4 °F -16.9 °F - N/A% 29.57 in 2.8 mi East 13.8 mph - N/A   Overcast
5:00 AM 1.4 °F -16.1 °F - N/A% 29.76 in 2.0 mi East 12.7 mph - N/A   Overcast
5:20 AM 1.4 °F -17.6 °F - N/A% 29.57 in 3.5 mi East 15.0 mph - N/A   Overcast
6:00 AM 1.4 °F -16.1 °F - N/A% 29.76 in 7.0 mi East 12.7 mph - N/A   Overcast
7:00 AM 1 °F - - % 29.76 in 5 mi East 13.8 mph - -   Overcast
7:00 AM 1.4 °F -17.6 °F - N/A% 29.76 in 5.0 mi East 15.0 mph - N/A   Overcast
8:00 AM 1.4 °F -17.6 °F - N/A% 29.77 in 3.5 mi East 15.0 mph - N/A   Overcast
8:11 AM 1.4 °F -19.9 °F - N/A% 29.58 in 3.0 mi ESE 19.6 mph - N/A   Overcast
8:25 AM 1.4 °F -18.2 °F - N/A% 29.57 in 3.0 mi ESE 16.1 mph - N/A   Overcast
8:34 AM 1.4 °F -18.2 °F - N/A% 29.58 in 3.0 mi ESE 16.1 mph - N/A   Overcast
8:48 AM 1.4 °F -18.8 °F - N/A% 29.57 in 3.0 mi ESE 17.3 mph - N/A   Overcast
9:00 AM 1.4 °F -19.4 °F - N/A% 29.77 in 2.8 mi ESE 18.4 mph - N/A   Overcast
9:20 AM 1.4 °F -18.8 °F - N/A% 29.58 in 5.0 mi ESE 17.3 mph - N/A   Overcast
9:38 AM 1.4 °F -18.2 °F - N/A% 29.58 in 5.0 mi ESE 16.1 mph - N/A   Overcast
10:00 AM 1 °F - - % 29.78 in 4 mi ESE 13.8 mph - -   Overcast
10:00 AM 1.4 °F -16.9 °F - N/A% 29.78 in 4.0 mi ESE 13.8 mph - N/A   Overcast
10:05 AM 1.4 °F -17.6 °F - N/A% 29.59 in 4.0 mi ESE 15.0 mph - N/A   Overcast
10:15 AM 1.4 °F -17.6 °F - N/A% 29.59 in 3.0 mi ESE 15.0 mph - N/A   Overcast
10:31 AM 1.4 °F -16.9 °F - N/A% 29.59 in 2.2 mi ESE 13.8 mph - N/A   Clear
10:37 AM 1.4 °F -16.9 °F - N/A% 29.59 in 2.8 mi SE 13.8 mph - N/A   Overcast
10:47 AM 1.4 °F -16.9 °F - N/A% 29.59 in 2.5 mi ESE 13.8 mph - N/A   Overcast
10:58 AM 1.4 °F -16.9 °F - N/A% 29.59 in 3.5 mi SE 13.8 mph - N/A   Overcast
11:00 AM 1.4 °F -17.6 °F - N/A% 29.78 in 3.5 mi SE 15.0 mph - N/A   Overcast
11:09 AM 1.4 °F -17.6 °F - N/A% 29.59 in 2.8 mi SE 15.0 mph - N/A   Overcast
11:34 AM -2.2 °F -18.9 °F - N/A% 29.60 in 3.0 mi South 10.4 mph - N/A   Overcast
12:00 PM -2.2 °F -16.8 °F - N/A% 29.79 in 3.0 mi SSE 8.1 mph - N/A   Overcast
12:20 PM -0.4 °F -13.4 °F - N/A% 29.60 in 3.5 mi SE 6.9 mph - N/A   Overcast
12:28 PM -2.2 °F -16.8 °F - N/A% 29.60 in 3.0 mi SSE 8.1 mph - N/A   Overcast
1:00 PM -3 °F - - % 29.81 in 5 mi South 6.9 mph - -   Overcast
1:00 PM -2.2 °F -18.0 °F - N/A% 29.81 in 5.0 mi South 9.2 mph - N/A   Overcast
1:25 PM -2.2 °F -18.9 °F - N/A% 29.61 in 4.0 mi South 10.4 mph - N/A   Overcast
1:28 PM -2.2 °F -18.9 °F - N/A% 29.61 in 3.5 mi South 10.4 mph - N/A   Overcast
1:30 PM -4.0 °F -21.2 °F - N/A% 29.61 in 2.5 mi South 10.4 mph - N/A   Overcast
1:33 PM -4.0 °F -21.2 °F - N/A% 29.61 in 1.4 mi South 10.4 mph - N/A   Overcast
1:38 PM -4.0 °F -19.0 °F - N/A% 29.61 in 1.1 mi South 8.1 mph - N/A   Overcast
1:45 PM -4.0 °F -19.0 °F - N/A% 29.61 in 3.5 mi South 8.1 mph - N/A   Overcast
2:00 PM -4.0 °F -19.0 °F - N/A% 29.81 in 5.0 mi South 8.1 mph - N/A   Overcast
2:10 PM -4.0 °F -19.0 °F - N/A% 29.62 in 5.0 mi South 8.1 mph - N/A   Overcast
2:15 PM -4.0 °F -19.0 °F - N/A% 29.61 in 5.0 mi South 8.1 mph - N/A   Overcast
2:21 PM -4.0 °F -20.2 °F - N/A% 29.62 in 5.0 mi SSW 9.2 mph - N/A   Overcast
2:48 PM -4.0 °F -20.2 °F - N/A% 29.62 in 2.5 mi South 9.2 mph - N/A   Overcast
2:51 PM -4.0 °F -21.2 °F - N/A% 29.62 in 1.4 mi SSW 10.4 mph - N/A   Overcast
2:55 PM -4.0 °F -21.2 °F - N/A% 29.62 in 1.0 mi SSW 10.4 mph - N/A   Overcast
3:00 PM -4.0 °F -20.2 °F - N/A% 29.83 in 0.8 mi SSW 9.2 mph - N/A   Overcast
3:03 PM -4.0 °F -20.2 °F - N/A% 29.63 in 0.6 mi SSW 9.2 mph - N/A   Overcast
3:39 PM -4.0 °F -21.2 °F - N/A% 29.64 in 1.0 mi SSW 10.4 mph - N/A   Clear
3:40 PM -4.0 °F -20.2 °F - N/A% 29.63 in 1.0 mi SSW 9.2 mph - N/A   Clear
3:46 PM -4.0 °F -21.2 °F - N/A% 29.64 in 0.6 mi SSW 10.4 mph - N/A   Clear
3:59 PM -4.0 °F -22.1 °F - N/A% 29.64 in 1.0 mi SSW 11.5 mph - N/A   Clear
4:00 PM -5 °F - - % 29.83 in 1 mi SSW 11.5 mph - -  
4:00 PM -4.0 °F -22.1 °F - N/A% 29.83 in 1.1 mi SSW 11.5 mph - N/A   Clear
4:12 PM -5.8 °F -24.4 °F - N/A% 29.64 in 1.0 mi SSW 11.5 mph - N/A   Clear
4:13 PM -5.8 °F -23.4 °F - N/A% 29.64 in 0.6 mi South 10.4 mph - N/A   Clear
4:17 PM -5.8 °F -25.2 °F - N/A% 29.64 in 0.4 mi South 12.7 mph - N/A   Overcast
4:46 PM -5.8 °F -21.2 °F - N/A% 29.65 in 0.1 mi SSW 8.1 mph - N/A   Clear
5:00 PM -5.8 °F -21.2 °F - N/A% 29.86 in 0.1 mi South 8.1 mph - N/A   Clear
5:18 PM -5.8 °F -23.4 °F - N/A% 29.65 in 0.1 mi South 10.4 mph - N/A   Clear
5:26 PM -5.8 °F -23.4 °F - N/A% 29.66 in 0.5 mi SSW 10.4 mph - N/A   Clear
5:29 PM -5.8 °F -23.4 °F - N/A% 29.66 in 1.2 mi SSW 10.4 mph - N/A   Clear
5:31 PM -5.8 °F -22.4 °F - N/A% 29.66 in 3.5 mi SSW 9.2 mph - N/A   Clear
5:39 PM -5.8 °F -24.4 °F - N/A% 29.66 in 3.0 mi South 11.5 mph - N/A   Clear
5:42 PM -5.8 °F -24.4 °F - N/A% 29.66 in 1.2 mi SSW 11.5 mph - N/A   Clear
5:44 PM -5.8 °F -24.4 °F - N/A% 29.66 in 0.8 mi SSW 11.5 mph - N/A   Clear
5:45 PM -5.8 °F -24.4 °F - N/A% 29.66 in 0.6 mi SSW 11.5 mph - N/A   Clear
5:59 PM -5.8 °F -23.4 °F - N/A% 29.66 in 1.0 mi South 10.4 mph - N/A   Clear
6:00 PM -5.8 °F -23.4 °F - N/A% 29.86 in 1.1 mi South 10.4 mph - N/A   Clear
6:07 PM -5.8 °F -22.4 °F - N/A% 29.66 in 3.0 mi SSW 9.2 mph - N/A   Clear
6:13 PM -5.8 °F -22.4 °F - N/A% 29.66 in 2.8 mi SSW 9.2 mph - N/A   Clear
6:16 PM -5.8 °F -22.4 °F - N/A% 29.66 in 1.2 mi South 9.2 mph - N/A   Clear
6:19 PM -5.8 °F -21.2 °F - N/A% 29.66 in 1.0 mi SSW 8.1 mph - N/A   Clear
6:20 PM -5.8 °F -21.2 °F - N/A% 29.66 in 0.6 mi SSW 8.1 mph - N/A   Clear
6:31 PM -5.8 °F -19.9 °F - N/A% 29.66 in 1.1 mi SSW 6.9 mph - N/A   Clear
6:34 PM -5.8 °F -19.9 °F - N/A% 29.66 in 3.0 mi SSW 6.9 mph - N/A   Clear
6:49 PM -5.8 °F -19.9 °F - N/A% 29.67 in 2.6 mi SSW 6.9 mph - N/A   Clear
6:52 PM -5.8 °F -18.4 °F - N/A% 29.67 in 1.2 mi SSW 5.8 mph - N/A   Clear
6:54 PM -5.8 °F -18.4 °F - N/A% 29.67 in 1.0 mi SSW 5.8 mph - N/A   Clear
6:55 PM -5.8 °F -18.4 °F - N/A% 29.67 in 0.6 mi SW 5.8 mph - N/A   Clear
7:00 PM -6 °F - - % 29.87 in 0 mi SSW 5.8 mph - -  
7:00 PM -5.8 °F -18.4 °F - N/A% 29.87 in 0.4 mi SSW 5.8 mph - N/A   Clear
7:12 PM -5.8 °F -19.9 °F - N/A% 29.67 in 0.8 mi SSW 6.9 mph - N/A   Overcast
7:20 PM -5.8 °F -19.9 °F - N/A% 29.67 in 0.6 mi SSW 6.9 mph - N/A   Overcast
7:49 PM -5.8 °F -16.7 °F - N/A% 29.67 in 1.0 mi SSW 4.6 mph - N/A   Overcast
7:55 PM -5.8 °F -18.4 °F - N/A% 29.68 in 0.6 mi SSW 5.8 mph - N/A   Overcast
8:00 PM -5.8 °F -16.7 °F - N/A% 29.88 in 0.5 mi SSW 4.6 mph - N/A   Overcast
8:10 PM -5.8 °F -16.7 °F - N/A% 29.68 in 0.4 mi SSW 4.6 mph - N/A   Overcast
8:56 PM -5.8 °F -16.7 °F - N/A% 29.68 in 0.5 mi SSW 4.6 mph - N/A   Overcast
9:00 PM -5.8 °F -16.7 °F - N/A% 29.89 in 0.6 mi SSW 4.6 mph - N/A   Overcast
9:11 PM -5.8 °F -16.7 °F - N/A% 29.68 in 1.0 mi SSW 4.6 mph - N/A   Overcast
9:13 PM -5.8 °F -16.7 °F - N/A% 29.68 in 1.0 mi SSW 4.6 mph - N/A   Overcast
9:15 PM -5.8 °F -16.7 °F - N/A% 29.68 in 0.6 mi SSW 4.6 mph - N/A   Overcast
9:59 PM -5.8 °F - - N/A% 29.69 in 0.4 mi South 2.3 mph - N/A   Clear
10:00 PM -6 °F - - % 29.89 in 0 mi Calm Calm - -  
10:00 PM -5.8 °F - - N/A% 29.89 in 0.4 mi South 2.3 mph - N/A   Clear
11:00 PM -5.8 °F - - N/A% 29.90 in 0.2 mi SSW 2.3 mph - N/A   Clear
11:20 PM -5.8 °F - - N/A% 29.70 in 0.5 mi South 2.3 mph - N/A   Clear
11:33 PM -5.8 °F - - N/A% 29.70 in 1.0 mi SSW 2.3 mph - N/A   Clear
11:40 PM -5.8 °F -16.7 °F - N/A% 29.70 in 3.0 mi SW 4.6 mph - N/A   Clear